Zurück zum Katalog

STARLINK-34512

AktivKommunikationVLEO
NORAD 64419·PAYLOAD·🇺🇸 United States

Gestartet Jun 17, 2025 von Vandenberg Space Force Base

Loading…

Nächste Überflüge (nächste 24 Stunden)

TLE

AktuellSource: CelesTrak SupGP

Epoche: Sep 14, 2026, 15:21 UTC

1 64419C 25129H   26257.64006944  .00018093  00000+0  62966-3 0  2577
2 64419  69.9991 316.2341 0003569 274.9883 155.3453 15.29555828    10

Verfolge STARLINK-34512 in Echtzeit mit AllMySat

Download on the App Store